Temp
22 24 24 25 26 27 27 26 26 26 28 27 28 28 29 30 30 30 28 26 25 25 23 23 27 25 25 24 23 23 22 22 21 21 20 20 20 20 20 19 19 18 18 18
23 23 24 25 26 25 26 26 26 26 27 26 28 28 29 30 29 29 29 27 25 25 24 22 25 26 25 25 25 23 23 23 22 21 21 20 20 20 20 20 19 19 18 18
24 26 24 24 25 24 25 25 26 26 27 27 26 27 28 30 29 28 29 28 26 25 24 23 23 26 26 26 25 25 24 23 23 22 21 20 20 20 20 20 19 19 19 19
24 25 24 24 24 25 25 26 26 26 26 26 26 26 28 29 29 29 30 28 27 25 24 23 25 26 26 27 26 25 24 23 23 23 22 21 21 21 21 21 20 20 19 19
25 24 24 24 25 26 26 26 26 26 26 25 27 26 28 28 29 31 31 31 30 29 26 25 24 26 28 26 28 26 26 24 23 23 23 22 22 21 20 20 20 20 19 19
24 23 24 26 26 26 27 26 24 23 25 25 27 26 28 29 29 31 31 30 31 32 29 28 27 23 25 26 27 26 26 25 24 23 23 23 22 22 20 20 20 19 19 18
24 25 25 25 25 25 25 25 24 24 24 25 25 25 27 30 30 29 31 30 29 29 30 30 27 24 23 25 26 27 26 26 25 24 23 23 22 21 21 20 19 19 19 18
23 24 25 26 26 26 25 26 24 23 24 26 23 26 28 29 28 27 26 27 27 26 28 30 28 24 23 24 26 27 26 25 25 24 24 23 22 21 21 20 19 18 18 19
23 24 25 25 27 27 23 24 26 23 22 23 26 27 28 28 29 29 26 25 25 25 26 29 27 23 23 23 25 27 26 25 25 25 24 23 22 22 21 20 20 19 19 19
23 22 25 26 26 25 26 26 25 24 21 22 25 26 26 28 29 27 25 22 21 21 22 23 23 22 21 22 24 25 25 25 25 25 24 23 22 22 22 21 20 19 19 19
22 22 25 24 25 25 25 25 24 26 23 24 24 26 27 26 25 23 23 20 20 20 21 21 21 20 20 21 24 24 23 24 24 24 23 23 22 22 22 21 20 19 19 19
21 22 23 25 24 24 24 24 25 24 21 24 24 26 25 24 23 22 22 20 19 19 19 20 19 19 20 22 24 24 24 24 24 24 23 22 22 22 22 21 20 19 19 19
22 22 23 24 24 24 23 22 24 23 22 25 25 26 24 22 22 19 20 20 19 17 18 18 18 18 18 18 19 22 24 24 24 24 23 22 22 21 21 21 20 19 19 19
19 20 21 22 22 22 21 22 21 21 22 25 26 27 26 21 19 18 17 18 19 19 18 17 18 18 18 18 19 18 18 22 24 24 24 23 22 21 21 20 19 19 19 19
21 20 20 22 22 22 22 22 21 21 21 22 26 24 19 17 16 16 16 16 17 18 19 18 17 17 23 18 18 18 18 17 17 19 23 21 23 21 20 19 19 19 19 18
19 20 20 21 22 22 22 21 21 21 20 21 22 22 16 15 15 16 16 16 16 16 16 17 18 17 17 20 17 22 23 19 18 18 17 21 23 21 20 19 19 19 18 18
17 19 20 20 21 22 22 20 19 19 20 18 19 18 15 15 17 17 16 16 17 16 16 19 19 20 21 20 19 20 20 21 18 17 18 18 21 20 19 19 19 19 18 18
16 16 18 20 21 20 19 18 18 17 18 18 17 16 16 16 15 14 14 15 15 15 15 18 19 21 20 21 20 21 23 23 19 17 17 18 19 19 18 18 18 18 18 17
15 16 19 20 21 21 18 18 18 17 17 16 15 15 15 15 15 15 13 14 14 14 15 15 17 17 18 19 19 20 19 20 20 19 16 18 18 18 17 17 17 17 17 17
15 14 16 18 20 20 18 17 14 16 15 14 14 16 16 16 18 17 13 13 13 15 15 15 15 14 15 15 16 16 15 14 13 15 18 17 17 17 17 17 17 17 17 16
16 16 17 19 19 19 15 14 13 16 16 14 14 15 15 16 15 13 14 13 13 14 13 14 15 15 15 15 15 15 14 14 14 15 18 19 17 17 17 17 17 17 17 17
15 15 17 16 17 19 13 15 16 14 13 12 14 14 14 13 13 13 14 13 14 14 13 13 14 14 14 15 16 16 14 13 13 15 16 15 16 16 16 16 16 16 16 15
15 15 14 15 16 13 13 13 12 12 12 12 13 13 13 14 13 13 14 13 13 13 13 13 13 13 13 13 15 15 13 14 14 14 15 15 15 15 15 15 15 15 15 14
16 12 14 14 14 14 14 12 11 11 11 12 12 13 13 13 13 13 12 12 12 12 13 13 12 13 13 13 13 13 13 13 14 14 14 14 14 14 14 14 14 14 13 13
16 13 14 15 14 13 14 12 12 12 12 12 13 13 12 13 13 13 13 12 12 12 12 12 12 12 12 12 12 12 12 12 12 12 12 13 13 14 14 14 14 13 13 12
14 17 16 16 14 13 14 12 12 13 12 11 12 13 12 14 13 12 12 12 12 12 11 11 11 12 11 12 12 12 12 12 12 13 13 13 13 13 13 13 13 12 12 12
Height
1488 1489 1487 1486 1484 1482 1483 1490 1492 1491 1484 1485 1478 1476 1470 1464 1464 1461 1459 1458 1459 1457 1470 1474 1481 1486 1489 1493 1498 1501 1505 1509 1514 1517 1520 1522 1524 1528 1531 1533 1536 1537 1539 1541
1486 1482 1482 1482 1480 1484 1484 1485 1486 1485 1481 1483 1475 1471 1463 1458 1457 1456 1455 1452 1451 1459 1462 1466 1472 1478 1482 1486 1491 1497 1500 1504 1509 1513 1517 1520 1523 1526 1528 1531 1532 1534 1535 1536
1477 1474 1476 1477 1479 1483 1479 1481 1482 1483 1477 1475 1476 1471 1462 1453 1451 1449 1447 1446 1449 1450 1452 1457 1460 1468 1474 1477 1483 1491 1495 1498 1504 1510 1514 1517 1521 1522 1523 1524 1526 1529 1531 1531
1473 1466 1470 1471 1473 1474 1477 1472 1473 1478 1481 1485 1474 1482 1462 1451 1449 1444 1441 1441 1442 1444 1446 1450 1453 1459 1464 1469 1479 1485 1491 1495 1500 1505 1508 1511 1514 1515 1518 1521 1523 1524 1526 1527
1466 1465 1467 1468 1465 1464 1466 1466 1469 1471 1475 1480 1470 1481 1458 1452 1447 1437 1434 1435 1435 1437 1438 1441 1442 1445 1454 1465 1473 1476 1483 1489 1495 1499 1503 1507 1509 1512 1516 1517 1518 1519 1521 1522
1467 1465 1463 1458 1457 1460 1458 1465 1473 1477 1473 1486 1466 1474 1460 1450 1441 1432 1430 1431 1432 1432 1434 1435 1437 1442 1448 1456 1462 1465 1475 1482 1488 1493 1498 1501 1505 1509 1512 1513 1513 1515 1516 1517
1465 1458 1458 1459 1461 1458 1462 1467 1482 1486 1484 1481 1465 1473 1457 1435 1431 1431 1426 1428 1430 1430 1430 1431 1431 1432 1438 1445 1453 1457 1467 1475 1482 1488 1492 1497 1502 1506 1507 1507 1507 1508 1511 1513
1470 1468 1454 1450 1451 1454 1457 1457 1476 1494 1484 1473 1473 1466 1446 1430 1428 1428 1428 1425 1424 1424 1422 1422 1423 1426 1429 1437 1445 1452 1459 1469 1476 1482 1487 1493 1498 1502 1503 1503 1503 1503 1507 1508
1471 1462 1448 1447 1444 1448 1461 1463 1454 1480 1479 1483 1460 1447 1435 1428 1425 1425 1427 1425 1421 1415 1412 1411 1415 1419 1423 1430 1438 1446 1454 1464 1471 1478 1483 1490 1495 1497 1498 1500 1500 1501 1504 1505
1467 1472 1449 1443 1443 1442 1448 1448 1463 1465 1492 1498 1464 1455 1450 1430 1424 1422 1424 1424 1417 1413 1408 1407 1411 1416 1422 1428 1436 1443 1450 1459 1467 1474 1480 1486 1490 1493 1495 1495 1497 1499 1500 1501
1467 1470 1454 1450 1448 1449 1451 1453 1452 1451 1467 1473 1472 1452 1430 1431 1429 1428 1425 1423 1419 1415 1415 1410 1413 1417 1422 1427 1432 1439 1447 1455 1463 1470 1477 1482 1487 1488 1491 1493 1495 1497 1498 1499
1468 1466 1464 1451 1444 1445 1444 1450 1447 1457 1473 1456 1460 1441 1426 1427 1428 1428 1425 1423 1421 1419 1418 1418 1415 1419 1423 1426 1429 1436 1444 1450 1457 1465 1473 1479 1483 1486 1488 1490 1493 1494 1495 1495
1470 1466 1466 1456 1449 1444 1450 1452 1449 1452 1454 1445 1448 1434 1426 1429 1428 1429 1427 1424 1423 1422 1420 1420 1422 1427 1433 1436 1438 1438 1441 1447 1452 1460 1467 1474 1478 1483 1485 1489 1491 1491 1491 1492
1472 1469 1467 1466 1461 1454 1458 1453 1451 1454 1459 1436 1430 1425 1424 1431 1431 1432 1429 1427 1425 1423 1424 1423 1424 1424 1430 1434 1440 1446 1453 1450 1450 1455 1461 1465 1472 1480 1484 1486 1489 1489 1489 1489
1471 1472 1467 1457 1453 1453 1452 1449 1450 1454 1450 1451 1427 1431 1437 1436 1436 1438 1432 1429 1426 1426 1426 1428 1427 1429 1425 1434 1437 1443 1448 1455 1462 1464 1459 1467 1469 1476 1482 1484 1487 1488 1487 1487
1471 1469 1465 1458 1450 1450 1448 1447 1447 1447 1442 1441 1437 1436 1442 1440 1441 1440 1435 1432 1431 1432 1433 1430 1429 1434 1432 1431 1441 1440 1444 1450 1464 1470 1475 1467 1465 1473 1479 1481 1483 1485 1485 1485
1475 1467 1464 1461 1452 1448 1450 1447 1447 1446 1445 1449 1447 1444 1449 1443 1444 1443 1439 1435 1434 1436 1433 1433 1434 1440 1432 1440 1449 1443 1445 1451 1461 1470 1474 1477 1464 1471 1477 1480 1481 1482 1482 1482
1472 1472 1466 1458 1453 1464 1449 1447 1449 1449 1448 1448 1450 1448 1445 1445 1446 1446 1442 1440 1439 1439 1438 1435 1435 1435 1440 1441 1445 1446 1448 1452 1455 1463 1474 1476 1465 1468 1476 1477 1480 1479 1479 1479
1469 1469 1460 1457 1451 1447 1450 1447 1450 1450 1449 1455 1452 1450 1450 1447 1446 1446 1445 1441 1442 1439 1440 1440 1437 1437 1438 1441 1441 1439 1442 1442 1439 1454 1470 1469 1462 1463 1471 1474 1476 1476 1474 1475
1467 1469 1469 1460 1454 1454 1447 1451 1453 1450 1462 1452 1450 1451 1447 1446 1443 1448 1448 1447 1443 1440 1444 1444 1443 1440 1439 1438 1439 1441 1441 1436 1432 1443 1457 1458 1453 1461 1467 1469 1470 1472 1469 1471
1464 1463 1461 1455 1453 1447 1457 1457 1456 1461 1461 1458 1457 1454 1451 1445 1449 1451 1450 1448 1446 1444 1447 1447 1445 1443 1442 1443 1442 1442 1440 1444 1429 1435 1446 1441 1458 1462 1465 1466 1466 1466 1465 1464
1470 1468 1461 1461 1457 1454 1459 1457 1456 1458 1457 1455 1453 1451 1447 1446 1447 1448 1450 1449 1445 1449 1452 1451 1447 1446 1449 1449 1447 1445 1449 1450 1448 1443 1446 1460 1462 1461 1461 1462 1460 1459 1459 1459
1472 1471 1472 1466 1459 1462 1459 1459 1459 1459 1457 1453 1451 1447 1445 1445 1447 1449 1450 1451 1452 1453 1452 1451 1451 1454 1453 1452 1451 1454 1458 1455 1454 1458 1459 1459 1459 1459 1457 1456 1453 1452 1451 1452
1469 1471 1469 1465 1461 1459 1460 1458 1457 1456 1456 1451 1450 1449 1450 1450 1452 1453 1453 1454 1455 1454 1455 1454 1456 1456 1455 1454 1454 1456 1461 1461 1461 1461 1458 1457 1456 1455 1452 1448 1446 1445 1446 1444
1465 1467 1464 1460 1459 1458 1458 1458 1459 1458 1456 1454 1453 1453 1454 1454 1455 1456 1456 1455 1455 1457 1459 1460 1459 1457 1457 1459 1461 1462 1464 1465 1464 1462 1459 1456 1451 1451 1447 1445 1444 1445 1441 1438
1463 1459 1459 1457 1458 1459 1460 1459 1458 1457 1458 1458 1458 1455 1456 1456 1456 1460 1460 1459 1459 1459 1460 1460 1462 1462 1463 1463 1465 1466 1465 1465 1462 1460 1457 1453 1451 1450 1449 1449 1448 1443 1436 1433
Wind_Speed
8 8 15 18 18 19 16 12 12 5 9 11 17 15 14 25 22 21 17 22 28 37 24 32 35 35 33 33 33 33 32 30 29 29 27 26 26 25 25 25 20 17 19 19
6 16 11 16 19 15 15 16 13 9 11 6 12 20 19 16 12 17 14 20 27 23 26 29 38 37 38 37 35 35 33 31 30 30 28 27 25 23 21 20 22 20 18 20
16 10 11 16 17 15 18 19 12 11 8 9 11 11 8 13 15 15 15 13 16 26 30 32 37 42 41 41 38 37 37 35 30 29 30 31 27 23 21 21 21 20 21 19
11 14 15 15 17 16 18 15 16 9 8 11 2 13 11 13 10 10 17 10 16 21 25 28 37 40 48 45 37 36 38 37 33 30 31 30 28 25 21 17 16 17 20 22
7 7 14 16 20 17 16 7 10 10 9 4 13 6 9 8 12 12 10 14 16 19 22 28 35 43 43 47 38 44 38 38 36 34 32 29 29 25 17 14 15 18 20 22
10 7 5 9 11 17 14 8 2 2 4 7 14 8 7 7 7 6 9 13 16 20 19 22 26 34 42 44 47 49 44 40 36 34 34 32 27 22 18 17 19 18 14 14
6 15 13 11 12 6 10 8 5 6 5 9 4 6 7 16 15 16 14 13 14 17 20 24 25 32 38 44 52 50 45 43 39 35 34 32 27 23 17 22 23 20 13 13
4 4 9 9 12 7 12 12 6 5 7 11 3 7 3 9 16 16 16 18 22 21 21 24 26 28 34 38 46 49 47 43 40 36 34 30 25 21 19 19 16 15 18 20
4 4 3 8 3 8 3 4 10 3 3 5 5 6 10 7 11 6 10 19 21 22 19 22 20 26 30 37 41 44 45 41 39 36 32 26 23 20 17 13 14 10 11 16
1 6 5 2 4 5 4 7 4 4 6 13 13 16 11 16 15 16 14 17 17 16 8 13 18 21 25 29 34 37 39 38 35 33 30 25 23 18 18 18 17 18 10 10
4 3 5 3 3 6 4 4 2 4 1 12 14 13 4 9 10 12 11 14 14 9 4 11 14 17 21 25 28 30 32 33 30 30 28 26 23 19 21 17 18 14 12 12
3 3 5 6 4 5 1 4 2 6 6 8 8 17 1 6 6 8 11 12 9 6 2 6 12 15 19 22 24 25 26 27 28 29 27 25 21 21 21 19 17 12 11 11
8 2 6 6 4 3 3 5 6 8 6 15 12 13 4 6 7 10 11 11 9 6 5 7 9 7 6 7 13 23 25 28 30 30 28 25 20 22 19 17 19 16 13 11
3 2 4 7 5 4 5 6 6 8 7 12 13 14 4 7 8 8 11 11 10 9 8 9 12 13 9 9 11 11 15 26 31 30 29 28 22 22 18 15 16 15 12 10
6 5 4 10 13 9 7 7 1 3 9 12 16 10 2 4 6 8 8 10 13 11 10 8 10 9 18 12 15 17 18 10 14 27 29 25 21 20 17 14 14 14 11 9
3 5 7 14 8 9 12 1 5 6 5 7 12 6 3 7 3 6 12 13 14 12 10 11 11 10 15 17 14 17 15 12 10 16 16 24 21 20 17 15 14 13 13 11
4 4 5 12 5 12 7 2 2 3 3 6 7 5 4 5 6 11 13 12 14 14 12 13 12 6 9 8 4 9 9 9 8 17 21 21 21 19 16 14 13 13 15 13
7 8 6 8 8 8 1 0 3 5 6 6 6 2 3 5 3 3 4 6 8 11 11 12 6 3 4 8 7 6 13 17 11 15 26 24 18 17 15 14 15 15 16 16
11 4 5 6 7 3 4 1 2 3 5 4 6 4 6 3 6 6 6 2 4 10 10 12 6 1 2 11 18 20 12 24 24 37 35 23 15 14 17 16 16 16 16 18
3 7 4 2 4 4 4 4 9 9 7 10 11 6 5 5 2 4 7 4 8 11 13 12 13 12 7 6 8 2 3 20 26 37 27 15 8 10 14 14 14 18 16 19
4 2 6 8 4 1 6 8 3 5 1 5 8 9 7 1 3 2 5 10 12 11 10 9 14 12 16 15 10 12 16 13 14 10 5 1 6 8 10 11 14 16 17 18
4 4 2 2 5 4 9 1 2 4 5 6 7 7 6 1 8 9 7 10 14 13 10 10 12 16 12 10 11 13 9 10 10 10 4 3 6 8 10 12 15 17 20 22
2 2 4 3 3 1 7 4 4 5 9 8 8 6 7 11 10 9 8 8 11 12 13 13 14 14 15 15 12 10 7 3 5 4 5 3 2 3 5 9 11 17 21 23
3 2 3 4 1 4 4 4 2 4 7 7 3 5 6 10 10 8 7 7 10 10 11 12 14 15 18 17 16 16 13 11 9 9 10 9 8 7 9 10 11 11 11 14
1 5 3 4 3 5 3 2 0 5 5 10 12 10 12 11 9 8 7 9 10 12 14 13 14 17 16 16 14 13 10 9 9 9 11 13 14 13 15 16 11 8 7 12
4 3 2 2 0 0 3 3 5 10 9 10 13 15 14 11 14 4 6 8 10 11 12 14 13 16 15 12 10 8 7 6 6 7 10 13 15 15 15 15 14 12 10 10
Wind_Direction
191 209 218 213 218 239 261 249 255 237 269 287 282 280 286 295 299 285 251 217 212 221 213 211 212 218 214 218 215 213 210 211 212 213 210 208 210 217 224 231 233 231 236 236
202 239 234 229 228 231 234 244 252 264 250 240 288 293 290 290 275 288 261 220 219 214 210 209 209 215 220 216 214 216 211 210 213 217 217 218 216 222 227 233 238 244 247 247
235 260 217 218 227 230 237 243 241 249 276 263 283 276 275 285 289 286 268 242 225 213 211 211 215 212 218 217 213 215 215 214 212 218 221 224 226 230 230 230 234 241 243 246
242 230 216 219 229 227 246 228 248 246 257 274 240 291 292 289 291 276 283 246 229 222 220 218 220 220 216 219 214 215 220 219 216 220 224 225 227 227 229 236 246 252 258 247
235 210 210 224 227 219 245 228 227 228 238 265 267 263 287 282 282 273 253 254 259 234 228 226 227 230 223 215 208 219 221 221 220 220 225 227 230 235 238 241 246 251 258 256
271 293 260 238 236 223 236 219 133 119 210 246 265 240 274 292 243 245 239 246 253 263 241 246 248 228 225 219 215 219 217 222 221 223 224 228 229 234 237 250 249 243 241 259
282 244 246 257 269 228 206 213 232 221 192 250 171 198 263 273 266 253 258 252 264 266 263 259 243 225 219 216 212 222 219 221 222 224 225 228 228 229 243 250 251 231 240 243
294 284 196 194 223 223 199 202 212 273 253 261 153 245 244 268 294 281 284 284 279 264 260 259 250 225 214 213 210 217 221 219 221 223 226 225 225 229 248 264 247 254 250 241
308 271 260 233 179 189 136 166 220 85 339 267 272 268 273 250 286 310 318 301 286 284 268 248 230 209 209 206 207 213 219 217 218 219 223 218 213 222 244 245 222 209 213 234
328 285 253 305 190 151 230 160 234 186 194 255 275 275 274 294 315 334 343 320 320 313 259 196 191 193 191 193 203 209 217 217 215 215 217 209 207 220 227 224 213 220 245 242
328 260 303 217 211 301 191 202 204 206 281 276 263 272 239 289 320 320 335 323 317 313 259 165 164 170 175 183 193 203 208 213 210 210 209 206 205 220 218 223 214 218 247 249
358 295 288 294 326 344 347 24 324 237 201 221 263 259 163 325 1 1 351 345 326 310 142 137 145 160 174 182 188 197 202 203 200 201 201 203 213 213 216 218 215 241 246 249
342 279 300 300 157 61 11 360 354 321 256 226 233 262 123 28 50 29 11 5 4 359 65 92 109 116 142 176 191 192 192 191 189 194 198 204 218 211 210 217 228 239 236 241
312 280 277 283 282 305 298 337 18 359 290 252 233 256 180 19 11 4 10 17 33 45 51 83 105 138 146 166 185 201 212 192 185 189 204 207 215 210 212 220 227 225 228 232
356 281 275 284 262 268 275 266 179 302 291 270 270 228 58 38 41 354 16 30 42 56 81 91 106 122 149 155 172 182 181 238 216 208 201 205 195 201 212 223 226 226 228 233
347 268 290 283 260 271 280 278 271 324 360 329 312 245 62 80 41 61 56 49 49 61 74 78 115 123 132 155 172 172 186 229 244 225 244 201 188 198 211 219 221 232 230 233
293 278 270 278 287 306 256 274 214 262 353 356 290 8 149 117 119 73 66 61 64 59 72 96 89 81 87 131 104 95 104 193 242 262 247 233 192 205 218 227 228 239 238 238
251 263 258 268 289 264 73 126 270 308 19 6 298 244 203 154 138 104 45 37 44 42 34 51 66 179 191 165 191 235 243 229 226 265 253 241 212 212 236 250 249 247 247 246
220 244 260 250 252 308 211 229 6 27 82 43 310 182 194 250 332 59 10 48 72 45 42 42 47 44 230 230 241 266 263 289 292 251 238 224 208 217 244 245 249 250 252 253
113 224 266 282 240 259 63 34 64 74 292 10 330 282 270 321 65 67 26 54 91 93 76 68 68 79 71 15 331 262 25 358 221 209 208 204 179 229 238 242 250 254 252 256
314 301 247 237 266 115 14 345 104 170 70 281 261 256 272 337 64 71 91 80 85 79 96 94 76 83 89 72 82 82 39 17 23 83 162 12 234 233 247 248 254 260 261 256
314 322 343 272 236 229 358 146 253 22 314 300 293 284 295 179 110 100 94 89 92 101 120 96 88 87 93 78 82 70 31 342 18 28 38 229 244 257 262 260 263 259 256 257
313 294 309 265 341 332 296 303 314 314 301 319 321 353 94 107 93 95 103 98 105 105 104 97 91 97 94 94 101 120 129 107 62 79 107 96 20 319 296 287 282 276 272 266
320 200 253 303 113 310 336 357 143 75 14 354 23 69 80 102 94 95 91 88 103 105 104 99 103 99 93 88 89 91 93 92 86 82 76 70 66 50 25 5 348 335 314 297
300 181 265 262 276 306 10 18 118 334 48 79 96 87 93 95 67 69 75 80 87 100 113 120 110 103 94 92 91 96 95 94 84 74 66 55 48 38 32 20 357 331 321 312
201 266 271 303 156 212 113 60 46 58 103 109 110 108 101 90 69 12 77 82 97 102 105 97 103 102 101 89 81 74 68 58 53 43 34 28 26 26 22 19 19 25 7 333